Flag for Switzerland Weather past 2 weeks in Mendrisio, Ticino, Switzerland

Now
27 °F

Chilly.


Feels Like: 27 °F
Forecast: 20 / 34 °F
Wind: 1 mph from Southwest

Location: Stabio

Current Time: Jan 31, 2015 at 11:56:07 PM

Latest Report: Jan 31, 2015 at 11:00 PM


Visibility: N/A

Pressure: 29.23 "Hg

Humidity: 81%

Dew point: 22 °F

Location of MendrisioLocation

Historic Weather in Mendrisio — Graph

°F

Mendrisio temperature yesterday

Maximum temperature yesterday: 46 °F (at 3:00 PM)
Minimum temperature yesterday: 28 °F (at 7:00 PM)
Average temperature yesterday: 35 °F

Past Weeks' High & Low Weather Summary

 TemperatureHumidityPressure
High56 °F (Jan 23, 4:00 PM)100% (Jan 16, 11:00 PM)30.33 "Hg (Jan 16, 11:00 PM)
Low22 °F (Jan 31, 7:00 AM)17% (Jan 24, 6:00 PM)28.85 "Hg (Jan 30, 12:00 PM)
Average37 °F70%29.83 "Hg
* Reported Jan 16 11:00 PM — Jan 31 10:00 PM, Mendrisio, Weather by CustomWeather, © 2014

Note: Actual official high and low records may vary slightly from our data, if they occured in-between our weather recording intervals... More about our weather records

Advertising

Mendrisio weather history for previous 24 hours

 ConditionsComfort  
Time TempWeatherWind HumidityBarometerVisibility
10:00 PM
Jan 31
27 °FChilly.1 mph83%29.23 "HgN/A
9:00 PM30 °FChilly.2 mph70%29.23 "HgN/A
8:00 PM30 °FChilly.2 mph70%29.21 "HgN/A
7:00 PM32 °FChilly.1 mph65%29.21 "HgN/A
6:00 PM34 °FChilly.1 mph59%29.18 "HgN/A
5:00 PM39 °FChilly.1 mph48%29.15 "HgN/A
4:00 PM41 °FQuite cool.2 mph45%29.12 "HgN/A
3:00 PM41 °FQuite cool.2 mph44%29.12 "HgN/A
2:00 PM41 °FQuite cool.1 mph41%29.12 "HgN/A
1:00 PM40 °FChilly.2 mph44%29.15 "HgN/A
12:00 PM41 °FQuite cool.5 mph43%29.15 "HgN/A
11:00 AM40 °FChilly.1 mph54%29.12 "HgN/A
10:00 AM33 °FChilly.1 mph70%29.12 "HgN/A
9:00 AM25 °FChilly.2 mph82%29.12 "HgN/A
8:00 AM22 °FCold.1 mph83%29.12 "HgN/A
7:00 AM22 °FCold.2 mph83%29.12 "HgN/A
6:00 AM22 °FCold.No wind83%29.09 "HgN/A
5:00 AM24 °FCold.2 mph77%29.09 "HgN/A
3:00 AM25 °FCold.2 mph72%29.06 "HgN/A
2:00 AM25 °FChilly.1 mph79%29.06 "HgN/A
1:00 AM27 °FChilly.2 mph69%29.03 "HgN/A
12:00 AM29 °FChilly.2 mph71%29.03 "HgN/A
11:00 PM
Jan 30
29 °FChilly.2 mph67%29.00 "HgN/A
Weather by CustomWeather, © 2014

See weather overviewHow to use our weather pages